Regional Weather Roundup
Issued by NWS

Home | Current Version | Previous Version | Text Only | Print | Product List | Glossary On
Versions: 1 2 3 4 5 6 7 8 9 10 11 12 13 14 15 16 17 18 19 20 21 22 23 24 25 26 27 28 29 30 31 32 33 34 35 36 37 38 39 40 41 42 43 44 45 46 47 48 49 50
000
ASCA44 KEWX 300920
RWRMX

LATIN AMERICA AND CARIBBEAN REGIONAL WEATHER ROUNDUP
NATIONAL WEATHER SERVICE AUSTIN/SAN ANTONIO TX
400 AM CDT SUN APR 30 2017

NOTE: "FAIR" INDICATED FEW OR NO CLOUDS BELOW 12,000 FEET WITH NO
SIGNIFICANT WEATHER AND/OR OBSTRUCTIONS TO VISIBILITY.

BAJA CALIFORNIA

CITY           SKY/WX    TMP DP  RH WIND       PRES   REMARKS
MEXICALI         N/A    N/A N/A N/A MISG        N/A
S.J. DEL CABO    N/A    N/A N/A N/A MISG        N/A
TIJUANA        CLEAR     61  25  25 E5        30.09S

NORTHWESTERN MEXICO

CITY           SKY/WX    TMP DP  RH WIND       PRES   REMARKS
HERMOSILLO     CLEAR     64  43  45 S3        29.98

NORTHEASTERN MEXICO

CITY           SKY/WX    TMP DP  RH WIND       PRES   REMARKS
MONCLOVA         N/A    N/A N/A N/A MISG        N/A
MONTERREY      MOCLDY    70  32  24 N15G26    29.90R
REYNOSA          N/A    N/A N/A N/A MISG        N/A
CD. VICTORIA     N/A    N/A N/A N/A MISG        N/A

WESTERN MEXICO

CITY           SKY/WX    TMP DP  RH WIND       PRES   REMARKS
AGUASCALIENTES CLEAR     55  21  26 S9        30.18
COLIMA           N/A    N/A N/A N/A MISG        N/A
GUADALAJARA    CLEAR     55  32  41 CALM      30.14
MAZATLAN       CLEAR     66  63  88 NE7       29.93F
P. VALLARTA      N/A    N/A N/A N/A MISG        N/A
URUAPAN          N/A    N/A N/A N/A MISG        N/A
ZACATECAS        N/A    N/A N/A N/A MISG        N/A

CENTRAL MEXICO

CITY           SKY/WX    TMP DP  RH WIND       PRES   REMARKS
CUERNAVACA       N/A    N/A N/A N/A MISG        N/A
MEXICO CITY    CLEAR     63  30  29 S2        30.26S
MORELIA        CLEAR     54  36  50 CALM      30.18
POZA RICA        N/A    N/A N/A N/A MISG        N/A
QUERETARO      CLEAR     59  19  21 N7        30.22S
S. LUIS POTOSI CLEAR     64  52  63 CALM      30.11F
TOLUCA         CLEAR     46  32  57 CALM      30.36S

SOUTHERN MEXICO

CITY           SKY/WX    TMP DP  RH WIND       PRES   REMARKS
ACAPULCO       PTCLDY    77  72  83 CALM      29.86F
B. DE HUATULCO   N/A    N/A N/A N/A MISG        N/A
P. ESCONDIDO     N/A    N/A N/A N/A MISG        N/A
VERACRUZ         N/A    N/A N/A N/A MISG        N/A

YUCATAN PENINSULA

CITY           SKY/WX    TMP DP  RH WIND       PRES   REMARKS
CAMPECHE         N/A    N/A N/A N/A MISG        N/A
CANCUN         MOCLDY    81  79  94 E18       29.88F
CHETUMAL       MOCLDY    82  77  83 SE12      29.81  HX  91
CD. DEL CARMEN   N/A    N/A N/A N/A MISG        N/A
COZUMEL        MOCLDY    81  75  83 SE12      29.85F
MERIDA         MOCLDY    81  73  78 SE21      29.80S
MINATITLAN       N/A    N/A N/A N/A MISG        N/A
TAPACHULA      CLEAR     79  73  83 CALM      29.87F

CENTRAL AMERICA

CITY           SKY/WX    TMP DP  RH WIND       PRES   REMARKS

CARIBBEAN

CITY           SKY/WX    TMP DP  RH WIND       PRES   REMARKS
CURACAO        PTCLDY    81  73  78 E15       29.92S
KINGSTON       PTCLDY    79  72  78 N9        29.94
NASSAU         PTCLDY    77  72  83 E12       30.11S
SAN JUAN       MOCLDY    79  73  83 E7        30.04R
SANTO DOMINGO  MOCLDY    70  68  94 CALM      30.00S
ST. CROIX      CLEAR     75  72  88 NE10      30.03R
ST. MAARTEN    MOCLDY    75  72  88 NE13      30.03S
ST. THOMAS     PTCLDY    75  72  88 E10       30.02S

$$





USA.gov is the U.S. government's official web portal to all federal, state and local government web resources and services.